Regional Weather Roundup
Issued by NWS Charleston, SC

Current Version | Previous Version | Graphics & Text | Print | Product List | Glossary On
Versions: 1 2 3 4 5 6 7 8 9 10 11 12 13 14 15 16 17 18 19 20 21 22 23 24 25 26 27 28 29 30 31 32 33 34 35 36 37 38 39 40 41 42 43 44 45 46 47 48 49 50
000
ASUS42 KCHS 191810
RWRCHS
REGIONAL WEATHER ROUNDUP
NATIONAL WEATHER SERVICE CHARLESTON SC
200 PM EDT FRI SEP 19 2014

NOTE: "FAIR" INDICATES FEW OR NO CLOUDS BELOW 12,000 FEET WITH NO
SIGNIFICANT WEATHER AND/OR OBSTRUCTIONS TO VISIBILITY.

NOT ALL STATIONS ARE QUALITY CONTROLLED BY THE NATIONAL
WEATHER SERVICE. USE DATA WITH CAUTION...ESPECIALLY
DEWPOINT OBSERVATIONS.

SCZ027-030-031-034>040-042>050-191900-
...SOUTH CAROLINA...

CITY           SKY/WX    TMP DP  RH WIND       PRES   REMARKS
N CHARLESTON   CLOUDY    84  68  58 E17G24    30.06F
6HR MIN TEMP:  73; 6HR MAX TEMP:  84;

WATERFRONT PRK   N/A     81 N/A N/A E18         N/A
FORT JOHNSON   NOT AVBL
MOUNT PLEASANT MOCLDY    79  73  83 E7G17     30.06F HAZE
JOHNS ISLAND   PTCLDY    81  81 100 E13G21    30.06F HX  91
PINOPOLIS        N/A     82  70  65 E12       30.02R
MONCKS CORNER  HVY RAIN  72  70  94 CALM      30.10R
SUMMERVILLE    HVY RAIN  72  72 100 NE8       30.09R
BEAUFORT MCAS  PTSUNNY   83  69  62 N16G22    30.04F
6HR MIN TEMP:  73; 6HR MAX TEMP:  84;

BEAUFORT ARPT  FAIR      82  70  65 E13G23    30.04F
HILTON HEAD IS MOSUNNY   82  72  69 NE10G18   30.05F
GEORGETOWN     NOT AVBL
WALTERBORO     CLOUDY    81  66  61 NE7       30.07S
ORANGEBURG     PTSUNNY   81  67  62 SE9       30.08F
6HR MIN TEMP:  70; 6HR MAX TEMP:  81; 6HR PCP: TRACE;

BARNWELL       FAIR      77  72  83 N8        30.09F
AIKEN          MOCLDY    77  72  83 NE8       30.14F
MANNING        MOCLDY    81  70  69 NE5       30.09F
KINGSTREE      NOT AVBL
COLUMBIA       PTSUNNY   79  66  64 N9        30.10F
6HR MIN TEMP:  66; 6HR MAX TEMP:  80; 6HR PCP:  0.46;

SUMTER         PTSUNNY   81  63  53 E12       30.09F
6HR MIN TEMP:  67; 6HR MAX TEMP:  83;

FLORENCE       PTSUNNY   81  65  58 E14       30.12S
6HR MIN TEMP:  68; 6HR MAX TEMP:  81;

MYRTLE BEACH   PTSUNNY   81  66  61 E17G23    30.10F
N MYRTLE BEACH CLOUDY    81  66  60 E15G24    30.10F
6HR MIN TEMP:  68; 6HR MAX TEMP:  82;


$$

GAZ063-065-086>088-099>101-113>116-118-119-134-136>141-150-191900-
...GEORGIA...

CITY           SKY/WX    TMP DP  RH WIND       PRES   REMARKS
SAVANNAH ARPT  LGT RAIN  79  71  76 E6        30.03F
6HR MIN TEMP:  72; 6HR MAX TEMP:  86; 6HR PCP:  0.22;

HUNTER AAF     PTSUNNY   79  74  86 E8        30.01F
6HR MIN TEMP:  73; 6HR MAX TEMP:  83; 6HR PCP:  0.46;

FORT STEWART   PTSUNNY   80  67  64 E10       30.02F
6HR MIN TEMP:  70; 6HR MAX TEMP:  85;

STATESBORO     NOT AVBL
SYLVANIA       PTCLDY    85  75  71 NE5       30.05F HX  93
CLAXTON        FAIR      88  72  58 E9        30.03F HX  94
THOMSON        MOSUNNY   77  72  83 NE7       30.14F
AUGUSTA-BUSH   PTSUNNY   78  68  71 NE14      30.08S
6HR MIN TEMP:  67; 6HR MAX TEMP:  79;

AUGUSTA-DANIEL PTSUNNY   79  67  66 NE14      30.10F
SWAINSBORO     FAIR      82  72  69 E9        30.06F
VIDALIA        PTSUNNY   86  70  58 E9        30.03F HX  90
ALMA           CLOUDY    76  70  82 N10G17    30.02F THUNDER
6HR MIN TEMP:  72; 6HR MAX TEMP:  84;

WAYCROSS       CLOUDY    86  75  69 E6        30.01F HX  96
JESUP          FAIR      88  73  62 E8        30.02F HX  96
BRUNSWICK      CLOUDY    84  70  61 NE9       30.01F
SAINT SIMONS   CLOUDY    84  71  65 E10       30.00F
6HR MIN TEMP:  73; 6HR MAX TEMP:  85; 6HR PCP: TRACE;


$$

SCZ027-028-034-036>038-045-046-048>050-GAZ119-141-191900-
...LAKE AND SUPPLEMENTAL COASTAL OBSERVATIONS...

STATION/POSITION TIME  TEMP    WIND        PRES    WAVE   SWELL
                       AIR SEA DIR/SP/G            HT/PER HT/PER/DIR
                 (UTC) (F)     (DEG/KT/KT) (MB)    (FT/S) (FT/S/D)
UPR LAKE MARION  NOT AVBL
WINYAH BAY       1700   80      70/ 15     1019.0S
LAKE MURRAY      1700   72      30/  2/  5 1019.6S
ACE BASIN NERRS  1700   82     100/  5     1018.0S
FORT PULASKI     1800   78      70/ 19/ 22 1017.2F
SAPELO ISLAND    1700   83      80/  7     1018.0S

$$

ANZ835-935-AMZ111-154-330-350-352-354-374-450-454-472-191900-
...C-MAN AND BUOY OBSERVATIONS...

STATION/POSITION TIME  TEMP    WIND        PRES    WAVE   SWELL
                       AIR SEA DIR/SP/G            HT/PER HT/PER/DIR
                 (UTC) (F)     (DEG/KT/KT) (MB)    (FT/S) (FT/S/D)
FOLLY BEACH CMAN 1700   78     100/ 16/ 18 1018.6F
BUOY 41004       1800   77 82   70/ 21/ 25 1017.1F   4/ 6   2/ 9
BUOY 41008       1800   81 84   70/ 10/ 12 1016.3F   2/10   2/ 80/10
5E ST. MARYS GA  1800      84                N/A     2/10   2/ 90/11
FRYING PAN BUOY  NOT AVBL
BUOY 41025       1800   78      50/ 17/ 21 1020.9S   6/ 7   2/ 50/ 9
CAPE LOOKOUT NC  1700   76      60/ 20/ 22 1020.8R
BUOY 41002       1719   79 82   60/ 14/ 17 1018.0    4/ 7   2/ 80/ 9
BUOY 41010       1800   83 85   90/ 10/ 14 1015.0F   3/11   2/ 60/11
BUOY 41012       NOT AVBL
ST AUGUSTINE FL  1800   82      80/  7/  9 1016.1F
CAPERS NEARSHORE 1700   77     110/ 16/ 17   N/A
FRIPP NEARSHORE  NOT AVBL


$$


USA.gov is the U.S. government's official web portal to all federal, state and local government web resources and services.